TimeMST,TemperatureF,Dew PointF,Humidity,Sea Level PressureIn,VisibilityMPH,Wind Direction,Wind SpeedMPH,Gust SpeedMPH,PrecipitationIn,Events,Conditions,WindDirDegrees,DateUTC
12:26 AM,8.6,3.2,79,30.11,2.5,WSW,4.6,-,0.00,Snow,Light Snow,240,2013-01-01 07:26:00
12:53 AM,8.1,5.0,87,30.35,2.5,SW,6.9,-,0.00,Snow,Light Snow,230,2013-01-01 07:53:00
1:07 AM,8.6,3.2,79,30.12,3.0,SW,5.8,-,0.00,Snow,Light Snow,220,2013-01-01 08:07:00
1:53 AM,9.0,5.0,84,30.35,5.0,Calm,Calm,-,0.00,Snow,Light Snow,0,2013-01-01 08:53:00
2:53 AM,9.0,6.1,88,30.37,10.0,Calm,Calm,-,0.00,,Overcast,0,2013-01-01 09:53:00
4:53 AM,10.9,7.0,84,30.39,10.0,Calm,Calm,-,N/A,,Overcast,0,2013-01-01 11:53:00
5:53 AM,10.9,7.0,84,30.40,10.0,Calm,Calm,-,N/A,,Overcast,0,2013-01-01 12:53:00
7:53 AM,6.1,3.9,91,30.41,10.0,Calm,Calm,-,N/A,,Partly Cloudy,0,2013-01-01 14:53:00
8:53 AM,8.1,5.0,87,30.40,10.0,Calm,Calm,-,N/A,,Overcast,0,2013-01-01 15:53:00
9:53 AM,10.9,8.1,88,30.39,10.0,West,3.5,-,N/A,,Overcast,260,2013-01-01 16:53:00
10:53 AM,10.9,7.0,84,30.37,10.0,Calm,Calm,-,N/A,,Clear,0,2013-01-01 17:53:00
11:53 AM,14.0,8.1,77,30.34,9.0,ENE,3.5,-,N/A,,Partly Cloudy,70,2013-01-01 18:53:00
12:53 PM,15.1,9.0,77,30.29,9.0,Calm,Calm,-,N/A,,Overcast,0,2013-01-01 19:53:00
1:53 PM,19.0,10.9,71,30.27,10.0,North,5.8,-,N/A,,Clear,350,2013-01-01 20:53:00
2:53 PM,19.9,12.9,74,30.28,10.0,NNW,5.8,-,N/A,,Overcast,330,2013-01-01 21:53:00
3:53 PM,21.0,15.1,78,30.32,6.0,Calm,Calm,-,0.00,Snow,Light Snow,0,2013-01-01 22:53:00
4:36 PM,19.4,15.8,86,30.14,1.8,East,6.9,-,0.00,Snow,Light Snow,80,2013-01-01 23:36:00
4:53 PM,19.9,17.1,89,30.33,3.0,South,4.6,-,0.00,Snow,Light Snow,190,2013-01-01 23:53:00
5:53 PM,12.9,10.9,92,30.39,10.0,ESE,4.6,-,0.00,,Mostly Cloudy,110,2013-01-02 00:53:00
6:53 PM,12.0,10.0,92,30.41,10.0,Calm,Calm,-,N/A,,Partly Cloudy,0,2013-01-02 01:53:00
7:53 PM,6.1,3.9,91,30.45,10.0,Calm,Calm,-,N/A,,Partly Cloudy,0,2013-01-02 02:53:00
8:53 PM,9.0,7.0,92,30.45,2.5,Calm,Calm,-,N/A,,Clear,0,2013-01-02 03:53:00
9:02 PM,3.2,3.2,100,30.20,1.0,Calm,Calm,-,N/A,,Clear,0,2013-01-02 04:02:00
9:10 PM,3.2,3.2,100,30.21,0.8,SE,3.5,-,N/A,,Clear,140,2013-01-02 04:10:00
9:18 PM,1.4,1.4,100,30.21,2.0,SSW,5.8,-,N/A,,Clear,210,2013-01-02 04:18:00
9:25 PM,6.8,3.2,85,30.22,10.0,SW,9.2,-,N/A,,Scattered Clouds,220,2013-01-02 04:25:00
9:53 PM,10.0,7.0,87,30.45,10.0,SSW,6.9,-,N/A,,Overcast,210,2013-01-02 04:53:00
10:53 PM,12.0,9.0,88,30.44,10.0,SSE,3.5,-,N/A,,Overcast,160,2013-01-02 05:53:00
11:53 PM,14.0,10.9,88,30.42,10.0,ESE,3.5,-,N/A,,Overcast,120,2013-01-02 06:53:00